Time,TemperatureF,DewpointF,PressureIn,WindDirection,WindDirectionDegrees,WindSpeedMPH,WindSpeedGustMPH,Humidity,HourlyPrecipIn,Conditions,Clouds,dailyrainin,SoftwareType,DateUTC
2013-12-12 00:01:00,26.9,18.1,30.46,NNE,12,1.0,2.0,69,0.00,,,0.00,Wunderground v.1.15,2013-12-12 05:01:00,
2013-12-12 00:02:00,26.9,18.4,30.46,North,11,1.0,2.0,70,0.00,,,0.00,Wunderground v.1.15,2013-12-12 05:02:00,
2013-12-12 00:03:00,26.8,18.0,30.46,NE,49,1.0,2.0,69,0.00,,,0.00,Wunderground v.1.15,2013-12-12 05:03:00,
2013-12-12 00:05:00,26.7,18.2,30.46,NE,36,1.0,2.0,70,0.00,,,0.00,Wunderground v.1.15,2013-12-12 05:05:00,
2013-12-12 00:11:00,26.5,18.4,30.47,ENE,63,1.0,3.0,71,0.00,,,0.00,Wunderground v.1.15,2013-12-12 05:11:00,
2013-12-12 00:17:00,26.3,18.2,30.47,NNE,27,1.0,3.0,71,0.00,,,0.00,Wunderground v.1.15,2013-12-12 05:17:00,
2013-12-12 00:18:00,26.3,18.2,30.47,NNE,27,2.0,3.0,71,0.00,,,0.00,Wunderground v.1.15,2013-12-12 05:18:00,
2013-12-12 00:23:00,26.3,18.2,30.46,ENE,67,2.0,5.0,71,0.00,,,0.00,Wunderground v.1.15,2013-12-12 05:23:00,
2013-12-12 00:28:00,26.1,18.3,30.47,NE,52,2.0,6.0,72,0.00,,,0.00,Wunderground v.1.15,2013-12-12 05:28:00,
2013-12-12 00:34:00,26.0,17.9,30.46,North,358,2.0,2.0,71,0.00,,,0.00,Wunderground v.1.15,2013-12-12 05:34:00,
2013-12-12 00:40:00,25.8,18.0,30.46,NE,50,2.0,2.0,72,0.00,,,0.00,Wunderground v.1.15,2013-12-12 05:40:00,
2013-12-12 00:46:00,25.6,18.5,30.46,North,5,2.0,4.0,74,0.00,,,0.00,Wunderground v.1.15,2013-12-12 05:46:00,
2013-12-12 00:51:00,25.4,17.9,30.46,NNE,22,2.0,3.0,73,0.00,,,0.00,Wunderground v.1.15,2013-12-12 05:51:00,
2013-12-12 00:57:00,25.3,17.9,30.46,NE,44,2.0,3.0,73,0.00,,,0.00,Wunderground v.1.15,2013-12-12 05:57:00,
2013-12-12 01:03:00,25.1,17.7,30.46,NE,43,1.0,2.0,73,0.00,,,0.00,Wunderground v.1.15,2013-12-12 06:03:00,
2013-12-12 01:09:00,25.0,17.6,30.46,NE,51,1.0,3.0,73,0.00,,,0.00,Wunderground v.1.15,2013-12-12 06:09:00,
2013-12-12 01:15:00,24.9,17.5,30.46,NE,51,1.0,3.0,73,0.00,,,0.00,Wunderground v.1.15,2013-12-12 06:15:00,
2013-12-12 01:21:00,24.6,17.5,30.46,ENE,63,1.0,2.0,74,0.00,,,0.00,Wunderground v.1.15,2013-12-12 06:21:00,
2013-12-12 01:27:00,24.4,17.3,30.46,NNE,12,1.0,4.0,74,0.00,,,0.00,Wunderground v.1.15,2013-12-12 06:27:00,
2013-12-12 01:33:00,24.3,17.5,30.45,NE,46,1.0,2.0,75,0.00,,,0.00,Wunderground v.1.15,2013-12-12 06:33:00,
2013-12-12 01:38:00,24.2,16.8,30.45,East,79,1.0,3.0,73,0.00,,,0.00,Wunderground v.1.15,2013-12-12 06:38:00,
2013-12-12 01:44:00,24.0,16.9,30.46,NE,51,1.0,2.0,74,0.00,,,0.00,Wunderground v.1.15,2013-12-12 06:44:00,
2013-12-12 01:50:00,23.8,17.0,30.46,NNE,32,1.0,1.0,75,0.00,,,0.00,Wunderground v.1.15,2013-12-12 06:50:00,
2013-12-12 01:56:00,23.6,16.8,30.46,NE,41,1.0,4.0,75,0.00,,,0.00,Wunderground v.1.15,2013-12-12 06:56:00,
2013-12-12 02:01:00,23.4,16.9,30.46,NE,42,1.0,2.0,76,0.00,,,0.00,Wunderground v.1.15,2013-12-12 07:01:00,
2013-12-12 02:06:00,23.3,16.5,30.46,NE,43,1.0,3.0,75,0.00,,,0.00,Wunderground v.1.15,2013-12-12 07:06:00,
2013-12-12 02:12:00,23.2,16.8,30.46,WSW,250,1.0,2.0,76,0.00,,,0.00,Wunderground v.1.15,2013-12-12 07:12:00,
2013-12-12 02:18:00,23.2,16.8,30.46,NNE,15,2.0,3.0,76,0.00,,,0.00,Wunderground v.1.15,2013-12-12 07:18:00,
2013-12-12 02:24:00,23.0,16.6,30.46,NE,40,2.0,4.0,76,0.00,,,0.00,Wunderground v.1.15,2013-12-12 07:24:00,
2013-12-12 02:29:00,22.9,17.1,30.46,NE,46,2.0,2.0,78,0.00,,,0.00,Wunderground v.1.15,2013-12-12 07:29:00,
2013-12-12 02:35:00,22.8,16.7,30.46,NNE,27,2.0,6.0,77,0.00,,,0.00,Wunderground v.1.15,2013-12-12 07:35:00,
2013-12-12 02:41:00,22.7,16.6,30.46,NNE,32,1.0,2.0,77,0.00,,,0.00,Wunderground v.1.15,2013-12-12 07:41:00,
2013-12-12 02:47:00,22.5,17.0,30.46,NNW,342,1.0,3.0,79,0.00,,,0.00,Wunderground v.1.15,2013-12-12 07:47:00,
2013-12-12 02:53:00,22.3,17.1,30.47,NNE,19,1.0,3.0,80,0.00,,,0.00,Wunderground v.1.15,2013-12-12 07:53:00,
2013-12-12 02:59:00,22.2,16.7,30.46,NW,304,1.0,3.0,79,0.00,,,0.00,Wunderground v.1.15,2013-12-12 07:59:00,
2013-12-12 03:04:00,22.2,16.7,30.46,ENE,77,2.0,7.0,79,0.00,,,0.00,Wunderground v.1.15,2013-12-12 08:04:00,
2013-12-12 03:09:00,22.1,16.9,30.45,NNE,29,2.0,4.0,80,0.00,,,0.00,Wunderground v.1.15,2013-12-12 08:09:00,
2013-12-12 03:15:00,22.0,16.8,30.45,NNE,22,1.0,5.0,80,0.00,,,0.00,Wunderground v.1.15,2013-12-12 08:15:00,
2013-12-12 03:21:00,21.9,16.7,30.45,NE,37,1.0,3.0,80,0.00,,,0.00,Wunderground v.1.15,2013-12-12 08:21:00,
2013-12-12 03:27:00,21.8,16.9,30.46,NE,46,2.0,5.0,81,0.00,,,0.00,Wunderground v.1.15,2013-12-12 08:27:00,
2013-12-12 03:32:00,21.8,16.9,30.46,NE,41,1.0,4.0,81,0.00,,,0.00,Wunderground v.1.15,2013-12-12 08:32:00,
2013-12-12 03:38:00,21.6,16.7,30.46,NE,56,1.0,4.0,81,0.00,,,0.00,Wunderground v.1.15,2013-12-12 08:38:00,
2013-12-12 03:44:00,21.4,16.8,30.46,NNE,16,0.0,2.0,82,0.00,,,0.00,Wunderground v.1.15,2013-12-12 08:44:00,
2013-12-12 03:50:00,21.1,16.2,30.46,North,11,0.0,2.0,81,0.00,,,0.00,Wunderground v.1.15,2013-12-12 08:50:00,
2013-12-12 03:55:00,21.1,15.9,30.45,NW,308,1.0,2.0,80,0.00,,,0.00,Wunderground v.1.15,2013-12-12 08:55:00,
2013-12-12 04:01:00,21.1,15.6,30.45,NE,46,1.0,2.0,79,0.00,,,0.00,Wunderground v.1.15,2013-12-12 09:01:00,
2013-12-12 04:07:00,21.1,15.6,30.45,NNE,16,1.0,2.0,79,0.00,,,0.00,Wunderground v.1.15,2013-12-12 09:07:00,
2013-12-12 04:13:00,21.3,15.2,30.45,NE,55,1.0,4.0,77,0.00,,,0.00,Wunderground v.1.15,2013-12-12 09:13:00,
2013-12-12 04:19:00,21.2,15.4,30.45,NNE,13,1.0,4.0,78,0.00,,,0.00,Wunderground v.1.15,2013-12-12 09:19:00,
2013-12-12 04:24:00,21.0,15.2,30.45,NNE,26,0.0,2.0,78,0.00,,,0.00,Wunderground v.1.15,2013-12-12 09:24:00,
2013-12-12 04:30:00,20.9,14.8,30.45,NNE,30,1.0,1.0,77,0.00,,,0.00,Wunderground v.1.15,2013-12-12 09:30:00,
2013-12-12 04:36:00,20.8,14.7,30.45,NNE,19,0.0,2.0,77,0.00,,,0.00,Wunderground v.1.15,2013-12-12 09:36:00,
2013-12-12 04:41:00,21.0,14.9,30.44,North,6,1.0,3.0,77,0.00,,,0.00,Wunderground v.1.15,2013-12-12 09:41:00,
2013-12-12 04:47:00,21.1,14.7,30.45,NE,51,1.0,3.0,76,0.00,,,0.00,Wunderground v.1.15,2013-12-12 09:47:00,
2013-12-12 04:53:00,21.0,14.6,30.45,West,271,1.0,2.0,76,0.00,,,0.00,Wunderground v.1.15,2013-12-12 09:53:00,
2013-12-12 04:59:00,20.9,13.9,30.45,ENE,63,0.0,3.0,74,0.00,,,0.00,Wunderground v.1.15,2013-12-12 09:59:00,
2013-12-12 05:04:00,20.8,14.1,30.45,ENE,69,0.0,2.0,75,0.00,,,0.00,Wunderground v.1.15,2013-12-12 10:04:00,
2013-12-12 05:10:00,20.6,14.2,30.45,North,10,0.0,2.0,76,0.00,,,0.00,Wunderground v.1.15,2013-12-12 10:10:00,
2013-12-12 05:16:00,21.0,14.0,30.46,NNE,13,1.0,2.0,74,0.00,,,0.00,Wunderground v.1.15,2013-12-12 10:16:00,
2013-12-12 05:22:00,21.0,13.7,30.46,NE,36,1.0,2.0,73,0.00,,,0.00,Wunderground v.1.15,2013-12-12 10:22:00,
2013-12-12 05:27:00,20.9,13.6,30.46,ENE,61,1.0,2.0,73,0.00,,,0.00,Wunderground v.1.15,2013-12-12 10:27:00,
2013-12-12 05:33:00,20.7,13.7,30.46,ENE,61,1.0,2.0,74,0.00,,,0.00,Wunderground v.1.15,2013-12-12 10:33:00,
2013-12-12 05:39:00,20.6,13.3,30.46,NNE,30,1.0,3.0,73,0.00,,,0.00,Wunderground v.1.15,2013-12-12 10:39:00,
2013-12-12 05:44:00,20.4,13.7,30.46,WNW,302,0.0,2.0,75,0.00,,,0.00,Wunderground v.1.15,2013-12-12 10:44:00,
2013-12-12 05:50:00,20.2,12.9,30.46,ENE,65,0.0,2.0,73,0.00,,,0.00,Wunderground v.1.15,2013-12-12 10:50:00,
2013-12-12 05:56:00,20.0,11.8,30.46,ENE,72,0.0,2.0,70,0.00,,,0.00,Wunderground v.1.15,2013-12-12 10:56:00,
2013-12-12 06:02:00,20.0,11.8,30.47,West,281,0.0,2.0,70,0.00,,,0.00,Wunderground v.1.15,2013-12-12 11:02:00,
2013-12-12 06:07:00,20.0,10.8,30.47,ENE,58,0.0,2.0,67,0.00,,,0.00,Wunderground v.1.15,2013-12-12 11:07:00,
2013-12-12 06:13:00,20.2,10.3,30.47,West,263,0.0,2.0,65,0.00,,,0.00,Wunderground v.1.15,2013-12-12 11:13:00,
2013-12-12 06:19:00,20.4,10.5,30.47,NW,321,0.0,2.0,65,0.00,,,0.00,Wunderground v.1.15,2013-12-12 11:19:00,
2013-12-12 06:25:00,20.4,10.1,30.47,NW,321,0.0,3.0,64,0.00,,,0.00,Wunderground v.1.15,2013-12-12 11:25:00,
2013-12-12 06:31:00,20.6,10.3,30.47,NNE,27,1.0,2.0,64,0.00,,,0.00,Wunderground v.1.15,2013-12-12 11:31:00,
2013-12-12 06:37:00,20.4,10.1,30.47,NE,42,0.0,2.0,64,0.00,,,0.00,Wunderground v.1.15,2013-12-12 11:37:00,
2013-12-12 06:43:00,20.5,9.5,30.48,NE,40,1.0,2.0,62,0.00,,,0.00,Wunderground v.1.15,2013-12-12 11:43:00,
2013-12-12 06:48:00,20.5,9.9,30.48,East,90,0.0,2.0,63,0.00,,,0.00,Wunderground v.1.15,2013-12-12 11:48:00,
2013-12-12 06:54:00,20.2,10.3,30.48,ESE,116,0.0,2.0,65,0.00,,,0.00,Wunderground v.1.15,2013-12-12 11:54:00,
2013-12-12 07:00:00,20.2,10.3,30.48,NE,46,0.0,2.0,65,0.00,,,0.00,Wunderground v.1.15,2013-12-12 12:00:00,
2013-12-12 07:06:00,20.0,11.1,30.48,NW,316,0.0,2.0,68,0.00,,,0.00,Wunderground v.1.15,2013-12-12 12:06:00,
2013-12-12 07:11:00,19.5,11.3,30.48,NNE,18,0.0,2.0,70,0.00,,,0.00,Wunderground v.1.15,2013-12-12 12:11:00,
2013-12-12 07:17:00,19.3,10.8,30.49,North,8,0.0,2.0,69,0.00,,,0.00,Wunderground v.1.15,2013-12-12 12:17:00,
2013-12-12 07:23:00,19.3,11.7,30.49,NE,46,0.0,2.0,72,0.00,,,0.00,Wunderground v.1.15,2013-12-12 12:23:00,
2013-12-12 07:29:00,19.1,12.2,30.49,NE,43,0.0,2.0,74,0.00,,,0.00,Wunderground v.1.15,2013-12-12 12:29:00,
2013-12-12 07:34:00,19.0,12.4,30.50,NE,53,0.0,2.0,75,0.00,,,0.00,Wunderground v.1.15,2013-12-12 12:34:00,
2013-12-12 07:39:00,18.9,13.5,30.50,NNE,32,0.0,2.0,79,0.00,,,0.00,Wunderground v.1.15,2013-12-12 12:39:00,
2013-12-12 07:45:00,18.6,13.5,30.50,ENE,68,0.0,2.0,80,0.00,,,0.00,Wunderground v.1.15,2013-12-12 12:45:00,
2013-12-12 07:51:00,18.4,13.8,30.50,North,1,0.0,2.0,82,0.00,,,0.00,Wunderground v.1.15,2013-12-12 12:51:00,
2013-12-12 07:56:00,18.3,13.7,30.50,North,8,1.0,2.0,82,0.00,,,0.00,Wunderground v.1.15,2013-12-12 12:56:00,
2013-12-12 08:02:00,18.5,14.2,30.51,NE,40,0.0,2.0,83,0.00,,,0.00,Wunderground v.1.15,2013-12-12 13:02:00,
2013-12-12 08:08:00,19.0,14.7,30.51,NE,46,0.0,2.0,83,0.00,,,0.00,Wunderground v.1.15,2013-12-12 13:08:00,
2013-12-12 08:14:00,19.5,15.2,30.51,NW,321,1.0,2.0,83,0.00,,,0.00,Wunderground v.1.15,2013-12-12 13:14:00,
2013-12-12 08:19:00,19.8,15.2,30.50,NE,38,1.0,1.0,82,0.00,,,0.00,Wunderground v.1.15,2013-12-12 13:19:00,
2013-12-12 08:25:00,20.3,15.4,30.51,East,91,0.0,2.0,81,0.00,,,0.00,Wunderground v.1.15,2013-12-12 13:25:00,
2013-12-12 08:31:00,20.4,15.2,30.51,NE,51,1.0,2.0,80,0.00,,,0.00,Wunderground v.1.15,2013-12-12 13:31:00,
2013-12-12 08:37:00,21.0,15.2,30.51,NE,46,1.0,2.0,78,0.00,,,0.00,Wunderground v.1.15,2013-12-12 13:37:00,
2013-12-12 08:42:00,21.3,14.6,30.51,NE,46,1.0,2.0,75,0.00,,,0.00,Wunderground v.1.15,2013-12-12 13:42:00,
2013-12-12 08:48:00,21.5,14.5,30.51,NE,51,1.0,2.0,74,0.00,,,0.00,Wunderground v.1.15,2013-12-12 13:48:00,
2013-12-12 08:54:00,21.9,13.9,30.51,NE,49,1.0,2.0,71,0.00,,,0.00,Wunderground v.1.15,2013-12-12 13:54:00,
2013-12-12 09:00:00,22.6,14.0,30.51,NE,48,1.0,2.0,69,0.00,,,0.00,Wunderground v.1.15,2013-12-12 14:00:00,
2013-12-12 09:05:00,23.2,13.9,30.51,NNE,13,1.0,2.0,67,0.00,,,0.00,Wunderground v.1.15,2013-12-12 14:05:00,
2013-12-12 09:11:00,23.5,13.5,30.52,NE,47,0.0,2.0,65,0.00,,,0.00,Wunderground v.1.15,2013-12-12 14:11:00,
2013-12-12 09:17:00,24.0,11.7,30.51,NE,44,0.0,2.0,59,0.00,,,0.00,Wunderground v.1.15,2013-12-12 14:17:00,
2013-12-12 09:23:00,24.6,11.9,30.52,West,259,0.0,2.0,58,0.00,,,0.00,Wunderground v.1.15,2013-12-12 14:23:00,
2013-12-12 09:28:00,25.0,9.4,30.52,NE,41,1.0,2.0,51,0.00,,,0.00,Wunderground v.1.15,2013-12-12 14:28:00,
2013-12-12 09:34:00,25.4,9.8,30.52,NE,53,1.0,2.0,51,0.00,,,0.00,Wunderground v.1.15,2013-12-12 14:34:00,
2013-12-12 09:40:00,26.2,10.1,30.53,NE,42,0.0,2.0,50,0.00,,,0.00,Wunderground v.1.15,2013-12-12 14:40:00,
2013-12-12 09:46:00,26.3,8.3,30.53,East,98,1.0,4.0,46,0.00,,,0.00,Wunderground v.1.15,2013-12-12 14:46:00,
2013-12-12 09:52:00,26.7,8.2,30.53,WSW,255,1.0,2.0,45,0.00,,,0.00,Wunderground v.1.15,2013-12-12 14:52:00,
2013-12-12 09:58:00,27.2,8.6,30.53,East,86,1.0,2.0,45,0.00,,,0.00,Wunderground v.1.15,2013-12-12 14:58:00,
2013-12-12 10:04:00,27.0,7.4,30.53,ENE,72,1.0,3.0,43,0.00,,,0.00,Wunderground v.1.15,2013-12-12 15:04:00,
2013-12-12 10:09:00,27.4,6.2,30.53,NE,53,1.0,2.0,40,0.00,,,0.00,Wunderground v.1.15,2013-12-12 15:09:00,
2013-12-12 10:15:00,27.2,7.1,30.53,NE,56,1.0,2.0,42,0.00,,,0.00,Wunderground v.1.15,2013-12-12 15:15:00,
2013-12-12 10:21:00,27.5,7.4,30.54,East,97,1.0,2.0,42,0.00,,,0.00,Wunderground v.1.15,2013-12-12 15:21:00,
2013-12-12 10:27:00,28.1,7.9,30.54,ENE,65,0.0,2.0,42,0.00,,,0.00,Wunderground v.1.15,2013-12-12 15:27:00,
2013-12-12 10:32:00,28.0,7.3,30.54,ENE,60,1.0,2.0,41,0.00,,,0.00,Wunderground v.1.15,2013-12-12 15:32:00,
2013-12-12 10:38:00,28.2,7.5,30.54,North,349,1.0,2.0,41,0.00,,,0.00,Wunderground v.1.15,2013-12-12 15:38:00,
2013-12-12 10:44:00,28.3,7.0,30.54,NE,53,1.0,2.0,40,0.00,,,0.00,Wunderground v.1.15,2013-12-12 15:44:00,
2013-12-12 10:50:00,28.5,9.3,30.54,East,79,1.0,1.0,44,0.00,,,0.00,Wunderground v.1.15,2013-12-12 15:50:00,
2013-12-12 10:56:00,28.7,8.5,30.55,NE,53,1.0,2.0,42,0.00,,,0.00,Wunderground v.1.15,2013-12-12 15:56:00,
2013-12-12 11:02:00,29.1,8.8,30.55,SSW,198,1.0,2.0,42,0.00,,,0.00,Wunderground v.1.15,2013-12-12 16:02:00,
2013-12-12 11:08:00,29.6,6.5,30.55,ENE,65,1.0,2.0,37,0.00,,,0.00,Wunderground v.1.15,2013-12-12 16:08:00,
2013-12-12 11:13:00,29.4,6.3,30.54,ENE,69,1.0,2.0,37,0.00,,,0.00,Wunderground v.1.15,2013-12-12 16:13:00,
2013-12-12 11:19:00,29.3,6.8,30.54,NE,56,1.0,2.0,38,0.00,,,0.00,Wunderground v.1.15,2013-12-12 16:19:00,
2013-12-12 11:25:00,29.3,6.2,30.54,NE,53,1.0,2.0,37,0.00,,,0.00,Wunderground v.1.15,2013-12-12 16:25:00,
2013-12-12 11:31:00,29.4,6.3,30.54,NE,49,1.0,2.0,37,0.00,,,0.00,Wunderground v.1.15,2013-12-12 16:31:00,
2013-12-12 11:36:00,29.6,7.1,30.54,ENE,61,1.0,2.0,38,0.00,,,0.00,Wunderground v.1.15,2013-12-12 16:36:00,
2013-12-12 11:42:00,29.8,7.2,30.53,NE,54,1.0,2.0,38,0.00,,,0.00,Wunderground v.1.15,2013-12-12 16:42:00,
2013-12-12 11:48:00,30.2,7.0,30.53,NE,46,1.0,2.0,37,0.00,,,0.00,Wunderground v.1.15,2013-12-12 16:48:00,
2013-12-12 11:54:00,30.5,6.1,30.53,NE,52,1.0,2.0,35,0.00,,,0.00,Wunderground v.1.15,2013-12-12 16:54:00,
2013-12-12 12:00:00,30.5,6.1,30.53,NE,46,1.0,1.0,35,0.00,,,0.00,Wunderground v.1.15,2013-12-12 17:00:00,
2013-12-12 12:06:00,30.8,6.3,30.53,ENE,60,1.0,2.0,35,0.00,,,0.00,Wunderground v.1.15,2013-12-12 17:06:00,
2013-12-12 12:12:00,31.3,6.1,30.53,ENE,57,1.0,2.0,34,0.00,,,0.00,Wunderground v.1.15,2013-12-12 17:12:00,
2013-12-12 12:17:00,31.4,4.9,30.53,ENE,59,1.0,2.0,32,0.00,,,0.00,Wunderground v.1.15,2013-12-12 17:17:00,
2013-12-12 12:23:00,31.6,2.9,30.52,NE,52,2.0,2.0,29,0.00,,,0.00,Wunderground v.1.15,2013-12-12 17:23:00,
2013-12-12 12:29:00,31.4,2.8,30.52,NE,55,2.0,2.0,29,0.00,,,0.00,Wunderground v.1.15,2013-12-12 17:29:00,
2013-12-12 12:35:00,31.1,3.2,30.52,ENE,64,2.0,2.0,30,0.00,,,0.00,Wunderground v.1.15,2013-12-12 17:35:00,
2013-12-12 12:40:00,31.1,1.0,30.51,ENE,67,2.0,5.0,27,0.00,,,0.00,Wunderground v.1.15,2013-12-12 17:40:00,
2013-12-12 12:46:00,31.1,1.7,30.52,ENE,58,2.0,5.0,28,0.00,,,0.00,Wunderground v.1.15,2013-12-12 17:46:00,
2013-12-12 12:51:00,31.5,5.0,30.52,ENE,61,1.0,2.0,32,0.00,,,0.00,Wunderground v.1.15,2013-12-12 17:51:00,
2013-12-12 12:57:00,31.6,3.7,30.52,NNE,29,1.0,2.0,30,0.00,,,0.00,Wunderground v.1.15,2013-12-12 17:57:00,
2013-12-12 13:03:00,31.4,3.5,30.52,ENE,60,2.0,2.0,30,0.00,,,0.00,Wunderground v.1.15,2013-12-12 18:03:00,
2013-12-12 13:09:00,31.5,3.6,30.52,NE,40,1.0,2.0,30,0.00,,,0.00,Wunderground v.1.15,2013-12-12 18:09:00,
2013-12-12 13:14:00,31.9,3.2,30.52,NNE,26,1.0,2.0,29,0.00,,,0.00,Wunderground v.1.15,2013-12-12 18:14:00,
2013-12-12 13:20:00,32.3,4.3,30.52,NE,42,1.0,1.0,30,0.00,,,0.00,Wunderground v.1.15,2013-12-12 18:20:00,
2013-12-12 13:26:00,32.3,2.8,30.52,NE,51,1.0,2.0,28,0.00,,,0.00,Wunderground v.1.15,2013-12-12 18:26:00,
2013-12-12 13:32:00,31.9,2.4,30.52,ENE,57,1.0,2.0,28,0.00,,,0.00,Wunderground v.1.15,2013-12-12 18:32:00,
2013-12-12 13:38:00,32.0,5.4,30.52,NE,50,1.0,2.0,32,0.00,,,0.00,Wunderground v.1.15,2013-12-12 18:38:00,
2013-12-12 13:44:00,32.1,2.6,30.52,North,10,1.0,3.0,28,0.00,,,0.00,Wunderground v.1.15,2013-12-12 18:44:00,
2013-12-12 13:50:00,32.0,1.7,30.52,ENE,65,1.0,3.0,27,0.00,,,0.00,Wunderground v.1.15,2013-12-12 18:50:00,
2013-12-12 13:55:00,31.8,1.6,30.52,NE,47,2.0,3.0,27,0.00,,,0.00,Wunderground v.1.15,2013-12-12 18:55:00,
2013-12-12 14:01:00,31.4,1.2,30.52,North,9,2.0,2.0,27,0.00,,,0.00,Wunderground v.1.15,2013-12-12 19:01:00,
2013-12-12 14:07:00,31.4,2.0,30.52,NNE,22,2.0,2.0,28,0.00,,,0.00,Wunderground v.1.15,2013-12-12 19:07:00,
2013-12-12 14:13:00,31.2,1.0,30.52,NNE,27,2.0,4.0,27,0.00,,,0.00,Wunderground v.1.15,2013-12-12 19:13:00,
2013-12-12 14:19:00,30.9,0.0,30.52,NE,55,2.0,4.0,26,0.00,,,0.00,Wunderground v.1.15,2013-12-12 19:19:00,
2013-12-12 14:25:00,30.9,-2.6,30.52,NNE,28,2.0,3.0,23,0.00,,,0.00,Wunderground v.1.15,2013-12-12 19:25:00,
2013-12-12 14:31:00,30.8,-1.0,30.52,NNE,27,2.0,2.0,25,0.00,,,0.00,Wunderground v.1.15,2013-12-12 19:31:00,
2013-12-12 14:37:00,30.9,0.0,30.53,North,6,2.0,3.0,26,0.00,,,0.00,Wunderground v.1.15,2013-12-12 19:37:00,
2013-12-12 14:42:00,30.7,-3.7,30.53,NNE,13,2.0,3.0,22,0.00,,,0.00,Wunderground v.1.15,2013-12-12 19:42:00,
2013-12-12 14:48:00,30.6,-6.9,30.53,NE,51,3.0,3.0,19,0.00,,,0.00,Wunderground v.1.15,2013-12-12 19:48:00,
2013-12-12 14:54:00,30.5,-4.9,30.52,NNE,22,3.0,3.0,21,0.00,,,0.00,Wunderground v.1.15,2013-12-12 19:54:00,
2013-12-12 15:00:00,30.4,-2.2,30.52,NNE,20,2.0,3.0,24,0.00,,,0.00,Wunderground v.1.15,2013-12-12 20:00:00,
2013-12-12 15:05:00,30.1,-4.2,30.53,NNE,27,2.0,3.0,22,0.00,,,0.00,Wunderground v.1.15,2013-12-12 20:05:00,
2013-12-12 15:11:00,30.0,-4.3,30.53,East,96,2.0,3.0,22,0.00,,,0.00,Wunderground v.1.15,2013-12-12 20:11:00,
2013-12-12 15:17:00,29.4,-3.0,30.53,NE,40,1.0,3.0,24,0.00,,,0.00,Wunderground v.1.15,2013-12-12 20:17:00,
2013-12-12 15:23:00,29.0,-1.7,30.52,NNE,18,1.0,2.0,26,0.00,,,0.00,Wunderground v.1.15,2013-12-12 20:23:00,
2013-12-12 15:29:00,28.7,-1.9,30.52,NNE,16,1.0,2.0,26,0.00,,,0.00,Wunderground v.1.15,2013-12-12 20:29:00,
2013-12-12 15:35:00,28.6,-6.5,30.52,NNE,25,1.0,2.0,21,0.00,,,0.00,Wunderground v.1.15,2013-12-12 20:35:00,
2013-12-12 15:41:00,28.6,-6.5,30.52,NE,53,2.0,5.0,21,0.00,,,0.00,Wunderground v.1.15,2013-12-12 20:41:00,
2013-12-12 15:46:00,28.5,-3.8,30.52,NE,40,2.0,5.0,24,0.00,,,0.00,Wunderground v.1.15,2013-12-12 20:46:00,
2013-12-12 15:52:00,28.2,-0.8,30.52,NNE,14,1.0,3.0,28,0.00,,,0.00,Wunderground v.1.15,2013-12-12 20:52:00,
2013-12-12 15:58:00,28.0,-1.0,30.52,NNE,15,1.0,3.0,28,0.00,,,0.00,Wunderground v.1.15,2013-12-12 20:58:00,
2013-12-12 16:04:00,28.0,-1.7,30.52,NE,44,2.0,3.0,27,0.00,,,0.00,Wunderground v.1.15,2013-12-12 21:04:00,
2013-12-12 16:09:00,28.1,-0.9,30.52,NE,47,2.0,3.0,28,0.00,,,0.00,Wunderground v.1.15,2013-12-12 21:09:00,
2013-12-12 16:15:00,28.0,-1.0,30.53,North,10,2.0,3.0,28,0.00,,,0.00,Wunderground v.1.15,2013-12-12 21:15:00,
2013-12-12 16:21:00,27.9,-1.1,30.53,NNE,27,2.0,2.0,28,0.00,,,0.00,Wunderground v.1.15,2013-12-12 21:21:00,
2013-12-12 16:27:00,27.8,-1.9,30.53,NNE,16,1.0,3.0,27,0.00,,,0.00,Wunderground v.1.15,2013-12-12 21:27:00,
2013-12-12 16:33:00,27.8,-1.9,30.53,North,360,2.0,2.0,27,0.00,,,0.00,Wunderground v.1.15,2013-12-12 21:33:00,
2013-12-12 16:37:00,27.7,-0.5,30.53,NNE,22,2.0,2.0,29,0.00,,,0.00,Wunderground v.1.15,2013-12-12 21:37:00,
2013-12-12 16:43:00,27.3,1.9,30.52,North,10,1.0,2.0,33,0.00,,,0.00,Wunderground v.1.15,2013-12-12 21:43:00,
2013-12-12 16:49:00,27.1,0.4,30.52,North,358,1.0,2.0,31,0.00,,,0.00,Wunderground v.1.15,2013-12-12 21:49:00,
2013-12-12 16:54:00,27.0,2.9,30.52,NNE,18,1.0,2.0,35,0.00,,,0.00,Wunderground v.1.15,2013-12-12 21:54:00,
2013-12-12 17:00:00,26.9,0.9,30.52,NNE,18,1.0,2.0,32,0.00,,,0.00,Wunderground v.1.15,2013-12-12 22:00:00,
2013-12-12 17:06:00,27.0,2.3,30.52,NE,44,1.0,4.0,34,0.00,,,0.00,Wunderground v.1.15,2013-12-12 22:06:00,
2013-12-12 17:11:00,26.9,2.2,30.52,NNE,32,1.0,2.0,34,0.00,,,0.00,Wunderground v.1.15,2013-12-12 22:11:00,
2013-12-12 17:17:00,26.8,2.1,30.52,North,9,1.0,2.0,34,0.00,,,0.00,Wunderground v.1.15,2013-12-12 22:17:00,
2013-12-12 17:23:00,26.7,2.7,30.52,NNE,18,1.0,2.0,35,0.00,,,0.00,Wunderground v.1.15,2013-12-12 22:23:00,
2013-12-12 17:29:00,26.4,1.8,30.52,NNE,18,1.0,2.0,34,0.00,,,0.00,Wunderground v.1.15,2013-12-12 22:29:00,
2013-12-12 17:34:00,26.2,2.2,30.52,NNE,12,1.0,2.0,35,0.00,,,0.00,Wunderground v.1.15,2013-12-12 22:34:00,
2013-12-12 17:40:00,25.9,3.7,30.52,North,9,0.0,2.0,38,0.00,,,0.00,Wunderground v.1.15,2013-12-12 22:40:00,
2013-12-12 17:46:00,25.7,3.6,30.53,North,8,0.0,2.0,38,0.00,,,0.00,Wunderground v.1.15,2013-12-12 22:46:00,
2013-12-12 17:52:00,25.5,3.4,30.53,NW,305,0.0,2.0,38,0.00,,,0.00,Wunderground v.1.15,2013-12-12 22:52:00,
2013-12-12 17:57:00,25.3,3.2,30.52,NW,307,0.0,2.0,38,0.00,,,0.00,Wunderground v.1.15,2013-12-12 22:57:00,
2013-12-12 18:03:00,25.1,2.4,30.53,WNW,291,0.0,2.0,37,0.00,,,0.00,Wunderground v.1.15,2013-12-12 23:03:00,
2013-12-12 18:09:00,25.3,2.6,30.54,WNW,298,0.0,2.0,37,0.00,,,0.00,Wunderground v.1.15,2013-12-12 23:09:00,
2013-12-12 18:15:00,25.2,2.5,30.54,NNW,333,0.0,2.0,37,0.00,,,0.00,Wunderground v.1.15,2013-12-12 23:15:00,
2013-12-12 18:20:00,25.1,2.4,30.54,North,4,0.0,2.0,37,0.00,,,0.00,Wunderground v.1.15,2013-12-12 23:20:00,
2013-12-12 18:26:00,25.0,2.9,30.54,North,356,0.0,2.0,38,0.00,,,0.00,Wunderground v.1.15,2013-12-12 23:26:00,
2013-12-12 18:32:00,25.1,1.8,30.54,East,98,0.0,2.0,36,0.00,,,0.00,Wunderground v.1.15,2013-12-12 23:32:00,
2013-12-12 18:38:00,25.4,3.3,30.54,ENE,64,1.0,2.0,38,0.00,,,0.00,Wunderground v.1.15,2013-12-12 23:38:00,
2013-12-12 18:43:00,25.5,3.9,30.55,SW,229,0.0,2.0,39,0.00,,,0.00,Wunderground v.1.15,2013-12-12 23:43:00,
2013-12-12 18:49:00,25.3,3.2,30.54,North,359,0.0,2.0,38,0.00,,,0.00,Wunderground v.1.15,2013-12-12 23:49:00,
2013-12-12 18:55:00,25.0,3.5,30.55,NW,307,0.0,2.0,39,0.00,,,0.00,Wunderground v.1.15,2013-12-12 23:55:00,
2013-12-12 19:01:00,24.7,2.1,30.55,NW,308,0.0,2.0,37,0.00,,,0.00,Wunderground v.1.15,2013-12-13 00:01:00,
2013-12-12 19:07:00,24.2,0.4,30.55,NW,308,0.0,2.0,35,0.00,,,0.00,Wunderground v.1.15,2013-12-13 00:07:00,
2013-12-12 19:13:00,24.1,0.3,30.56,SW,221,1.0,2.0,35,0.00,,,0.00,Wunderground v.1.15,2013-12-13 00:13:00,
2013-12-12 19:19:00,24.2,0.4,30.56,SW,221,1.0,2.0,35,0.00,,,0.00,Wunderground v.1.15,2013-12-13 00:19:00,
2013-12-12 19:24:00,24.6,0.2,30.56,SW,217,0.0,2.0,34,0.00,,,0.00,Wunderground v.1.15,2013-12-13 00:24:00,
2013-12-12 19:29:00,24.6,1.4,30.56,SW,225,0.0,2.0,36,0.00,,,0.00,Wunderground v.1.15,2013-12-13 00:29:00,
2013-12-12 19:35:00,24.7,2.1,30.56,SSW,200,1.0,2.0,37,0.00,,,0.00,Wunderground v.1.15,2013-12-13 00:35:00,
2013-12-12 19:41:00,24.8,1.6,30.56,SSW,210,1.0,2.0,36,0.00,,,0.00,Wunderground v.1.15,2013-12-13 00:41:00,
2013-12-12 19:47:00,24.6,2.6,30.56,SW,221,1.0,2.0,38,0.00,,,0.00,Wunderground v.1.15,2013-12-13 00:47:00,
2013-12-12 19:52:00,24.3,2.9,30.56,SSW,203,1.0,2.0,39,0.00,,,0.00,Wunderground v.1.15,2013-12-13 00:52:00,
2013-12-12 19:58:00,23.9,3.0,30.55,SW,229,0.0,2.0,40,0.00,,,0.00,Wunderground v.1.15,2013-12-13 00:58:00,
2013-12-12 20:03:00,23.9,1.4,30.55,SW,225,1.0,2.0,37,0.00,,,0.00,Wunderground v.1.15,2013-12-13 01:03:00,
2013-12-12 20:09:00,24.2,1.0,30.55,SW,229,1.0,2.0,36,0.00,,,0.00,Wunderground v.1.15,2013-12-13 01:09:00,
2013-12-12 20:14:00,24.1,2.1,30.56,SW,232,1.0,2.0,38,0.00,,,0.00,Wunderground v.1.15,2013-12-13 01:14:00,
2013-12-12 20:20:00,24.2,-0.2,30.55,SSW,201,0.0,2.0,34,0.00,,,0.00,Wunderground v.1.15,2013-12-13 01:20:00,
2013-12-12 20:26:00,24.4,0.0,30.55,SW,229,0.0,2.0,34,0.00,,,0.00,Wunderground v.1.15,2013-12-13 01:26:00,
2013-12-12 20:32:00,24.4,0.6,30.55,SW,229,0.0,2.0,35,0.00,,,0.00,Wunderground v.1.15,2013-12-13 01:32:00,
2013-12-12 20:37:00,24.8,0.4,30.55,SW,222,0.0,2.0,34,0.00,,,0.00,Wunderground v.1.15,2013-12-13 01:37:00,
2013-12-12 20:43:00,24.9,1.1,30.56,SW,224,0.0,2.0,35,0.00,,,0.00,Wunderground v.1.15,2013-12-13 01:43:00,
2013-12-12 20:49:00,25.0,0.5,30.55,SSW,212,0.0,2.0,34,0.00,,,0.00,Wunderground v.1.15,2013-12-13 01:49:00,
2013-12-12 20:55:00,25.1,1.2,30.55,West,280,0.0,2.0,35,0.00,,,0.00,Wunderground v.1.15,2013-12-13 01:55:00,
2013-12-12 21:00:00,25.1,1.2,30.55,WSW,243,0.0,2.0,35,0.00,,,0.00,Wunderground v.1.15,2013-12-13 02:00:00,
2013-12-12 21:06:00,25.0,1.8,30.54,South,190,0.0,2.0,36,0.00,,,0.00,Wunderground v.1.15,2013-12-13 02:06:00,
2013-12-12 21:12:00,24.9,2.8,30.54,North,4,0.0,2.0,38,0.00,,,0.00,Wunderground v.1.15,2013-12-13 02:12:00,
2013-12-12 21:18:00,24.6,2.6,30.54,North,356,0.0,2.0,38,0.00,,,0.00,Wunderground v.1.15,2013-12-13 02:18:00,
2013-12-12 21:23:00,24.5,3.0,30.54,NNW,347,0.0,2.0,39,0.00,,,0.00,Wunderground v.1.15,2013-12-13 02:23:00,
2013-12-12 21:29:00,24.2,3.3,30.54,West,270,0.0,2.0,40,0.00,,,0.00,Wunderground v.1.15,2013-12-13 02:29:00,
2013-12-12 21:35:00,24.0,3.7,30.53,West,270,0.0,2.0,41,0.00,,,0.00,Wunderground v.1.15,2013-12-13 02:35:00,
2013-12-12 21:40:00,23.8,3.0,30.53,WSW,243,0.0,2.0,40,0.00,,,0.00,Wunderground v.1.15,2013-12-13 02:40:00,
2013-12-12 21:46:00,23.8,3.0,30.53,WSW,243,0.0,2.0,40,0.00,,,0.00,Wunderground v.1.15,2013-12-13 02:46:00,
2013-12-12 21:52:00,23.9,2.5,30.53,SW,214,0.0,2.0,39,0.00,,,0.00,Wunderground v.1.15,2013-12-13 02:52:00,
2013-12-12 21:58:00,23.9,3.0,30.53,SE,139,0.0,2.0,40,0.00,,,0.00,Wunderground v.1.15,2013-12-13 02:58:00,
2013-12-12 22:03:00,24.1,3.2,30.52,South,172,0.0,2.0,40,0.00,,,0.00,Wunderground v.1.15,2013-12-13 03:03:00,
2013-12-12 22:09:00,24.2,2.8,30.52,SW,229,0.0,2.0,39,0.00,,,0.00,Wunderground v.1.15,2013-12-13 03:09:00,
2013-12-12 22:15:00,24.7,2.7,30.53,SW,233,1.0,2.0,38,0.00,,,0.00,Wunderground v.1.15,2013-12-13 03:15:00,
2013-12-12 22:21:00,25.1,3.0,30.52,SW,236,1.0,2.0,38,0.00,,,0.00,Wunderground v.1.15,2013-12-13 03:21:00,
2013-12-12 22:27:00,25.5,2.8,30.52,SW,236,1.0,2.0,37,0.00,,,0.00,Wunderground v.1.15,2013-12-13 03:27:00,
2013-12-12 22:33:00,25.5,2.8,30.52,SW,236,0.0,2.0,37,0.00,,,0.00,Wunderground v.1.15,2013-12-13 03:33:00,
2013-12-12 22:39:00,25.4,3.3,30.52,SW,236,0.0,2.0,38,0.00,,,0.00,Wunderground v.1.15,2013-12-13 03:39:00,
2013-12-12 22:44:00,25.5,2.8,30.52,SW,235,0.0,2.0,37,0.00,,,0.00,Wunderground v.1.15,2013-12-13 03:44:00,
2013-12-12 22:50:00,25.7,3.0,30.52,SW,228,0.0,2.0,37,0.00,,,0.00,Wunderground v.1.15,2013-12-13 03:50:00,
2013-12-12 22:56:00,25.8,3.1,30.52,SW,228,0.0,2.0,37,0.00,,,0.00,Wunderground v.1.15,2013-12-13 03:56:00,
2013-12-12 23:02:00,25.9,3.2,30.52,SW,228,0.0,2.0,37,0.00,,,0.00,Wunderground v.1.15,2013-12-13 04:02:00,
2013-12-12 23:07:00,26.1,3.3,30.52,SW,228,1.0,2.0,37,0.00,,,0.00,Wunderground v.1.15,2013-12-13 04:07:00,
2013-12-12 23:13:00,26.0,3.8,30.52,SW,226,1.0,2.0,38,0.00,,,0.00,Wunderground v.1.15,2013-12-13 04:13:00,
2013-12-12 23:19:00,26.0,3.8,30.52,SW,228,1.0,2.0,38,0.00,,,0.00,Wunderground v.1.15,2013-12-13 04:19:00,
2013-12-12 23:25:00,25.9,4.3,30.52,SW,228,1.0,2.0,39,0.00,,,0.00,Wunderground v.1.15,2013-12-13 04:25:00,
2013-12-12 23:31:00,25.8,3.6,30.52,SW,214,1.0,2.0,38,0.00,,,0.00,Wunderground v.1.15,2013-12-13 04:31:00,
2013-12-12 23:37:00,25.6,3.5,30.52,SW,221,1.0,2.0,38,0.00,,,0.00,Wunderground v.1.15,2013-12-13 04:37:00,
2013-12-12 23:43:00,25.7,3.6,30.53,SW,221,1.0,2.0,38,0.00,,,0.00,Wunderground v.1.15,2013-12-13 04:43:00,
2013-12-12 23:48:00,25.7,3.6,30.53,SW,224,1.0,2.0,38,0.00,,,0.00,Wunderground v.1.15,2013-12-13 04:48:00,
2013-12-12 23:54:00,25.4,3.3,30.53,SW,224,0.0,2.0,38,0.00,,,0.00,Wunderground v.1.15,2013-12-13 04:54:00,